Terminal Aerodrome Forecast
Issued by NWS St Louis, MO

Home | Current Version | Previous Version | Text Only | Print | Product List | Glossary On
Versions: 1 2 3 4 5 6 7 8 9 10 11 12 13 14 15 16
000
FTUS43 KLSX 081739
TAFCOU
TAF
KCOU 081739Z 0818/0918 23010KT P6SM FEW250
     FM090800 28012G20KT P6SM BKN025
     FM091500 33015G23KT P6SM SCT035=

USA.gov is the U.S. government's official web portal to all federal, state and local government web resources and services.